TimeEDT,TemperatureF,Dew PointF,Humidity,Sea Level PressureIn,VisibilityMPH,Wind Direction,Wind SpeedMPH,Gust SpeedMPH,PrecipitationIn,Events,Conditions,WindDirDegrees,DateUTC
12:54 AM,57.0,55.0,93,29.92,9.0,SW,9.2,-,N/A,,Clear,220,2012-10-06 04:54:00
1:54 AM,57.0,55.0,93,29.91,7.0,SSW,9.2,-,N/A,,Clear,210,2012-10-06 05:54:00
2:54 AM,57.0,55.0,93,29.88,7.0,SW,6.9,-,N/A,,Clear,230,2012-10-06 06:54:00
3:54 AM,60.1,55.9,86,29.88,9.0,WSW,9.2,-,N/A,,Unknown,240,2012-10-06 07:54:00
4:54 AM,59.0,55.9,90,29.87,8.0,SW,8.1,-,N/A,,Clear,220,2012-10-06 08:54:00
5:54 AM,55.9,54.0,93,29.86,6.0,SW,8.1,-,N/A,,Clear,220,2012-10-06 09:54:00
6:54 AM,59.0,55.9,90,29.85,6.0,SW,9.2,-,N/A,,Clear,220,2012-10-06 10:54:00
7:54 AM,59.0,55.9,90,29.85,3.0,SW,10.4,-,N/A,,Clear,220,2012-10-06 11:54:00
8:54 AM,59.0,57.0,93,29.84,4.0,SW,10.4,-,N/A,,Clear,220,2012-10-06 12:54:00
9:54 AM,62.1,57.0,84,29.84,10.0,SSW,11.5,-,N/A,,Clear,210,2012-10-06 13:54:00
10:54 AM,69.1,57.9,68,29.81,10.0,SSW,16.1,23.0,N/A,,Clear,200,2012-10-06 14:54:00
11:54 AM,71.1,57.0,61,29.79,10.0,SSW,17.3,28.8,N/A,,Clear,210,2012-10-06 15:54:00
12:54 PM,73.0,57.0,57,29.76,10.0,SW,15.0,31.1,N/A,,Scattered Clouds,220,2012-10-06 16:54:00
1:54 PM,73.0,55.9,55,29.73,10.0,SW,16.1,25.3,N/A,,Partly Cloudy,220,2012-10-06 17:54:00
2:54 PM,73.0,55.9,55,29.73,10.0,SSW,19.6,27.6,N/A,,Partly Cloudy,200,2012-10-06 18:54:00
3:54 PM,71.1,57.0,61,29.73,10.0,SW,13.8,23.0,N/A,,Overcast,220,2012-10-06 19:54:00
4:54 PM,64.9,57.0,75,29.75,10.0,NW,23.0,28.8,0.00,,Overcast,310,2012-10-06 20:54:00
5:07 PM,60.8,55.4,82,29.77,10.0,NW,23.0,29.9,0.00,Rain,Light Rain,310,2012-10-06 21:07:00
5:54 PM,57.2,48.2,72,29.80,10.0,WNW,17.3,23.0,N/A,,Mostly Cloudy,300,2012-10-06 21:54:00
6:19 PM,55.4,46.4,72,29.81,10.0,WNW,16.1,25.3,N/A,,Overcast,290,2012-10-06 22:19:00
6:54 PM,55.0,46.9,74,29.84,10.0,WNW,12.7,20.7,N/A,,Overcast,290,2012-10-06 22:54:00
7:01 PM,55.4,46.4,72,29.83,10.0,West,12.7,-,N/A,,Overcast,280,2012-10-06 23:01:00
7:54 PM,54.0,44.1,69,29.85,10.0,WNW,18.4,24.2,N/A,,Clear,290,2012-10-06 23:54:00
8:54 PM,52.0,42.1,69,29.89,10.0,WNW,12.7,-,N/A,,Clear,300,2012-10-07 00:54:00
9:54 PM,51.1,39.9,66,29.91,10.0,NW,12.7,-,N/A,,Clear,310,2012-10-07 01:54:00
10:54 PM,48.9,39.9,71,29.93,10.0,WNW,8.1,-,N/A,,Clear,290,2012-10-07 02:54:00
11:54 PM,48.0,39.9,74,29.93,10.0,West,6.9,-,N/A,,Clear,280,2012-10-07 03:54:00